Location: Palo Alto
(37.4420°N, 122.1420°W)
Time: 07:59:00
(UTC-07:00)

X-37B - Pass Details

Date: 14 August 2020
Orbit: 386 x 387 km, 45.0° (Epoch: 18 September)

Event Time Altitude Azimuth Distance (km) Brightness Sun altitude
Rises 20:26:17 0° 288° (WNW) 2,263 7.3 -5.5°
Reaches altitude 10° 20:28:42 10° 306° (NW) 1,409 5.0 -5.9°
Maximum altitude 20:31:09 20° 357° (N) 958 2.9 -6.4°
Drops below altitude 10° 20:33:36 10° 47° (NE) 1,410 3.2 -6.8°
Enters shadow 20:35:50 - 64° (ENE) 2,192 4.0 -7.2°
